Volver al catálogo

THORAD AGENA D DEB

ActivoPO
NORAD 5389·DEBRIS·🇺🇸 United States

Lanzado Apr 8, 1970 desde Vandenberg Space Force Base

Loading…

Próximos Pases (próximas 24 horas)

TLE

ActualizadoSource: Space-Track

Época: Sep 14, 2026, 12:54 UTC

1  5389U 70025KU  26257.53758214 -.00000036  00000-0  62210-5 0  9992
2  5389  99.7919 285.3633 0203157 101.6411  52.5568 13.11281421699136

Sigue THORAD AGENA D DEB en tiempo real con AllMySat

Download on the App Store